Location: Iesi
(43.5167°N, 13.2333°E)
Time: 16:30:44
(UTC+00:00)

FALCON 9 DEB - Pass Details

Date: 08 August 2020
Orbit: 427 x 441 km, 53.0° (Epoch: 22 September)

Event Time Altitude Azimuth Distance (km) Brightness Sun altitude
Rises 19:32:14 0° 213° (SSW) 2,413 6.9 -12.2°
Reaches altitude 10° 19:34:25 10° 205° (SSW) 1,549 5.8 -12.5°
Maximum altitude 19:37:39 36° 137° (SE) 709 3.7 -13.0°
Drops below altitude 10° 19:40:55 10° 69° (ENE) 1,559 5.6 -13.5°
Enters shadow 19:42:25 - 62° (ENE) 2,151 6.4 -13.7°
